• Em Portugal
  • Lista de países
  • Para 7 dias
  • Temperatura da água
  • Mapas de satélite
  • Mapa do tempo
  • Widgets de tempo
  • user-avatar
    Iniciar Sessão

    Previsão horária em Sagaleipie

    Hoje, 21 Maio, Segunda-feira

    Tempo Temperatura Precipitação Vento Pressão Humidade
    00:00 +24°C° 0 mm 1 m/s 723 mmHg 98%
    01:00 +24°C° 0 mm 1 m/s 723 mmHg 98%
    02:00 +24°C° 0 mm 1 m/s 723 mmHg 98%
    03:00 +24°C° 0 mm 1 m/s 723 mmHg 97%
    04:00 +24°C° 0 mm 1 m/s 723 mmHg 97%
    05:00 +24°C° 0 mm 1 m/s 723 mmHg 97%
    06:00 +25°C° 0,1 mm 1 m/s 723 mmHg 95%
    07:00 +26°C° 0,1 mm 1 m/s 723 mmHg 92%
    08:00 +26°C° 0,1 mm 1 m/s 724 mmHg 90%
    09:00 +28°C° 0 mm 1 m/s 724 mmHg 80%
    10:00 +30°C° 0 mm 1 m/s 723 mmHg 71%
    11:00 +32°C° 0 mm 1 m/s 723 mmHg 61%
    12:00 +32°C° 0,2 mm 1 m/s 723 mmHg 62%
    13:00 +32°C° 0,2 mm 1 m/s 722 mmHg 62%
    14:00 +32°C° 0,2 mm 1 m/s 722 mmHg 63%
    15:00 +31°C° 0,6 mm 1 m/s 721 mmHg 69%
    16:00 +30°C° 0,6 mm 1 m/s 721 mmHg 75%
    17:00 +29°C° 0,6 mm 1 m/s 721 mmHg 81%
    18:00 +28°C° 0,1 mm 1 m/s 722 mmHg 85%
    19:00 +26°C° 0,1 mm 1 m/s 722 mmHg 89%
    20:00 +25°C° 0,1 mm 1 m/s 723 mmHg 94%
    21:00 +25°C° 0,1 mm 1 m/s 723 mmHg 95%
    22:00 +24°C° 0,1 mm 1 m/s 723 mmHg 97%
    23:00 +24°C° 0,1 mm 1 m/s 723 mmHg 99%

    Amanhã, 22 Maio, Terça-feira

    Tempo Temperatura Precipitação Vento Pressão Humidade
    00:00 +24°C° 0 mm 1 m/s 723 mmHg 99%
    01:00 +24°C° 0 mm 1 m/s 723 mmHg 99%
    02:00 +24°C° 0 mm 1 m/s 722 mmHg 99%
    03:00 +24°C° 0 mm 1 m/s 722 mmHg 98%
    04:00 +24°C° 0 mm 1 m/s 722 mmHg 98%
    05:00 +24°C° 0 mm 1 m/s 723 mmHg 98%
    06:00 +25°C° 0 mm 1 m/s 723 mmHg 96%
    07:00 +25°C° 0 mm 1 m/s 723 mmHg 94%
    08:00 +26°C° 0 mm 1 m/s 724 mmHg 92%
    09:00 +27°C° 0 mm 1 m/s 724 mmHg 85%
    10:00 +28°C° 0 mm 1 m/s 724 mmHg 79%
    11:00 +29°C° 0 mm 1 m/s 724 mmHg 72%
    12:00 +30°C° 0 mm 1 m/s 723 mmHg 68%
    13:00 +31°C° 0 mm 1 m/s 723 mmHg 64%
    14:00 +32°C° 0 mm 2 m/s 722 mmHg 60%
    15:00 +32°C° 0,2 mm 1 m/s 722 mmHg 64%
    16:00 +31°C° 0,2 mm 1 m/s 722 mmHg 68%
    17:00 +30°C° 0,2 mm 1 m/s 722 mmHg 72%
    18:00 +29°C° 0,2 mm 1 m/s 722 mmHg 78%
    19:00 +27°C° 0,2 mm 1 m/s 723 mmHg 84%
    20:00 +26°C° 0,2 mm 1 m/s 723 mmHg 91%
    21:00 +26°C° 0,5 mm 1 m/s 724 mmHg 93%
    22:00 +25°C° 0,5 mm 1 m/s 724 mmHg 95%
    23:00 +25°C° 0,5 mm 1 m/s 724 mmHg 98%

    Depois de amanhã, 23 Maio, Quarta-feira

    Tempo Temperatura Precipitação Vento Pressão Humidade
    00:00 +25°C° 0,6 mm 1 m/s 724 mmHg 98%
    01:00 +24°C° 0,6 mm 1 m/s 724 mmHg 98%
    02:00 +24°C° 0,6 mm 1 m/s 723 mmHg 99%
    03:00 +24°C° 0,1 mm 1 m/s 723 mmHg 98%
    04:00 +24°C° 0,1 mm 1 m/s 723 mmHg 98%
    05:00 +24°C° 0,1 mm 1 m/s 723 mmHg 98%
    06:00 +25°C° 0 mm 1 m/s 724 mmHg 96%
    07:00 +25°C° 0 mm 1 m/s 724 mmHg 95%
    08:00 +25°C° 0 mm 1 m/s 724 mmHg 93%
    09:00 +27°C° 0 mm 1 m/s 724 mmHg 87%
    10:00 +28°C° 0 mm 1 m/s 725 mmHg 81%
    11:00 +29°C° 0 mm 1 m/s 725 mmHg 75%
    12:00 +30°C° 0 mm 1 m/s 724 mmHg 71%
    13:00 +31°C° 0 mm 1 m/s 723 mmHg 67%
    14:00 +32°C° 0 mm 2 m/s 723 mmHg 63%
    15:00 +31°C° 0,2 mm 1 m/s 723 mmHg 66%
    16:00 +31°C° 0,2 mm 1 m/s 723 mmHg 69%
    17:00 +30°C° 0,2 mm 1 m/s 723 mmHg 72%
    18:00 +29°C° 0,2 mm 1 m/s 723 mmHg 78%
    19:00 +27°C° 0,2 mm 1 m/s 724 mmHg 85%
    20:00 +26°C° 0,2 mm 1 m/s 724 mmHg 91%
    21:00 +25°C° 1,2 mm 1 m/s 724 mmHg 93%
    22:00 +25°C° 1,2 mm 1 m/s 725 mmHg 96%
    23:00 +24°C° 1,2 mm 1 m/s 725 mmHg 99%

    24 Maio, Quinta-feira

    Tempo Temperatura Precipitação Vento Pressão Humidade
    00:00 +24°C° 0 mm 1 m/s 724 mmHg 99%
    01:00 +22°C° 0 mm 0 m/s 724 mmHg 99%
    02:00 +22°C° 0 mm 0 m/s 723 mmHg 99%
    03:00 +22°C° 0 mm 0 m/s 723 mmHg 99%
    04:00 +22°C° 0 mm 0 m/s 723 mmHg 99%
    05:00 +22°C° 0 mm 0 m/s 723 mmHg 99%
    06:00 +23°C° 0 mm 0 m/s 724 mmHg 97%
    07:00 +25°C° 0 mm 1 m/s 724 mmHg 96%
    08:00 +26°C° 0 mm 1 m/s 725 mmHg 94%
    09:00 +27°C° 0 mm 1 m/s 724 mmHg 88%
    10:00 +28°C° 0 mm 1 m/s 724 mmHg 81%
    11:00 +29°C° 0 mm 1 m/s 724 mmHg 75%
    12:00 +29°C° 0,1 mm 1 m/s 723 mmHg 72%
    13:00 +30°C° 0,1 mm 1 m/s 723 mmHg 70%
    14:00 +30°C° 0,1 mm 1 m/s 722 mmHg 68%
    15:00 +30°C° 0,2 mm 1 m/s 722 mmHg 70%
    16:00 +30°C° 0,2 mm 1 m/s 722 mmHg 71%
    17:00 +30°C° 0,2 mm 1 m/s 722 mmHg 73%
    18:00 +28°C° 1,9 mm 1 m/s 723 mmHg 81%
    19:00 +26°C° 1,9 mm 1 m/s 723 mmHg 88%
    20:00 +25°C° 1,9 mm 1 m/s 724 mmHg 96%
    21:00 +24°C° 0,2 mm 1 m/s 724 mmHg 97%
    22:00 +24°C° 0,2 mm 1 m/s 724 mmHg 98%
    23:00 +24°C° 0,2 mm 1 m/s 724 mmHg 99%

    25 Maio, Sexta-feira

    Tempo Temperatura Precipitação Vento Pressão Humidade
    00:00 +24°C° 0 mm 1 m/s 723 mmHg 99%
    01:00 +24°C° 0 mm 1 m/s 723 mmHg 99%
    02:00 +24°C° 0 mm 1 m/s 722 mmHg 99%
    03:00 +24°C° 0 mm 1 m/s 722 mmHg 98%
    04:00 +24°C° 0 mm 1 m/s 723 mmHg 98%
    05:00 +22°C° 0 mm 0 m/s 723 mmHg 98%
    06:00 +23°C° 0,1 mm 0 m/s 723 mmHg 96%
    07:00 +25°C° 0,1 mm 1 m/s 724 mmHg 95%
    08:00 +26°C° 0,1 mm 1 m/s 724 mmHg 93%
    09:00 +28°C° 0 mm 1 m/s 724 mmHg 83%
    10:00 +30°C° 0 mm 1 m/s 724 mmHg 72%
    11:00 +32°C° 0 mm 1 m/s 724 mmHg 62%
    12:00 +32°C° 0 mm 1 m/s 723 mmHg 59%
    13:00 +33°C° 0 mm 1 m/s 722 mmHg 56%
    14:00 +34°C° 0 mm 1 m/s 722 mmHg 53%
    15:00 +32°C° 0,6 mm 1 m/s 722 mmHg 62%
    16:00 +30°C° 0,6 mm 1 m/s 722 mmHg 71%
    17:00 +29°C° 0,6 mm 1 m/s 722 mmHg 79%
    18:00 +28°C° 0,7 mm 1 m/s 722 mmHg 85%
    19:00 +26°C° 0,7 mm 1 m/s 723 mmHg 91%
    20:00 +25°C° 0,7 mm 1 m/s 723 mmHg 97%
    21:00 +25°C° 0,3 mm 1 m/s 723 mmHg 97%
    22:00 +25°C° 0,3 mm 1 m/s 723 mmHg 98%
    23:00 +25°C° 0,3 mm 2 m/s 723 mmHg 98%

    26 Maio, Sábado

    Tempo Temperatura Precipitação Vento Pressão Humidade
    00:00 +25°C° 0,1 mm 1 m/s 722 mmHg 98%
    01:00 +25°C° 0,1 mm 1 m/s 722 mmHg 98%
    02:00 +24°C° 0,1 mm 1 m/s 722 mmHg 98%
    03:00 +24°C° 0,1 mm 1 m/s 722 mmHg 98%
    04:00 +24°C° 0,1 mm 1 m/s 722 mmHg 98%
    05:00 +24°C° 0,1 mm 1 m/s 723 mmHg 98%
    06:00 +25°C° 0,1 mm 1 m/s 723 mmHg 97%
    07:00 +25°C° 0,1 mm 1 m/s 723 mmHg 95%
    08:00 +25°C° 0,1 mm 1 m/s 724 mmHg 93%
    09:00 +26°C° 0,1 mm 1 m/s 724 mmHg 88%
    10:00 +28°C° 0,1 mm 1 m/s 724 mmHg 82%
    11:00 +29°C° 0,1 mm 1 m/s 724 mmHg 77%
    12:00 +30°C° 0,2 mm 1 m/s 723 mmHg 71%
    13:00 +31°C° 0,2 mm 1 m/s 722 mmHg 65%
    14:00 +32°C° 0,2 mm 2 m/s 722 mmHg 60%
    15:00 +31°C° 0,5 mm 1 m/s 722 mmHg 66%
    16:00 +30°C° 0,5 mm 1 m/s 722 mmHg 72%
    17:00 +29°C° 0,5 mm 1 m/s 722 mmHg 78%
    18:00 +28°C° 0,6 mm 1 m/s 723 mmHg 84%
    19:00 +27°C° 0,6 mm 1 m/s 723 mmHg 89%
    20:00 +25°C° 0,6 mm 2 m/s 724 mmHg 94%
    21:00 +25°C° 0,2 mm 2 m/s 724 mmHg 95%
    22:00 +25°C° 0,2 mm 1 m/s 724 mmHg 96%
    23:00 +24°C° 0,2 mm 1 m/s 723 mmHg 98%
    Mostrar mais